Wind_Speed
7 7 8 9 9 9 7 8 8 8 8 8 8 8 9 9 10 10 10 10 11 11 11 11 11 11 11 11 12 12 12 12 12 13 13 13 13 13 13 13 13 13 13
8 8 8 10 10 10 8 8 9 9 9 9 9 9 10 10 11 11 11 11 12 12 12 12 12 12 12 12 13 13 13 13 13 14 14 14 14 15 14 14 14 15 14
9 9 9 10 11 11 10 9 10 10 10 10 10 11 11 12 12 12 12 12 13 13 13 13 13 13 13 13 14 14 15 14 15 15 15 16 16 16 16 15 15 16 16
10 10 10 10 10 10 10 11 12 12 11 10 11 11 12 13 13 13 13 14 14 14 14 14 14 14 15 15 15 15 16 16 16 16 16 16 17 17 17 17 17 17 17
10 10 11 10 10 11 12 13 13 13 12 11 12 13 13 13 14 14 14 14 14 15 15 16 16 16 16 16 16 16 16 17 17 17 18 18 18 19 19 18 19 18 18
10 11 11 11 12 12 13 14 14 13 13 13 13 14 14 14 14 15 15 16 16 16 16 17 17 17 17 17 18 18 17 17 17 18 18 19 19 20 20 20 19 19 19
11 11 12 12 12 13 13 14 14 14 14 14 14 15 15 15 16 16 16 17 17 17 18 18 18 19 19 19 19 19 19 19 18 19 19 19 20 20 21 21 20 20 20
12 12 13 13 14 14 15 15 15 15 15 16 16 17 16 16 17 18 18 18 18 19 19 19 19 20 20 20 20 20 20 20 20 20 20 19 20 21 21 21 21 21 21
12 13 14 15 15 16 17 16 16 17 17 17 17 18 17 18 18 18 19 19 20 20 20 20 20 20 21 21 21 21 21 21 20 20 20 20 21 21 21 22 22 21 21
13 14 15 16 17 17 18 17 17 17 18 18 18 18 19 19 20 20 21 20 20 21 21 21 21 22 22 22 22 22 23 22 21 21 21 21 21 22 22 22 22 22 22
14 15 16 17 18 17 18 18 18 18 18 18 19 19 20 21 21 21 22 21 21 21 22 22 22 23 23 23 23 23 23 23 23 22 21 22 22 22 22 22 23 23 22
15 16 16 17 19 20 19 18 19 19 20 20 20 20 20 21 21 22 22 22 22 22 22 22 22 22 23 23 23 23 23 23 23 23 22 22 22 23 24 23 23 24 23
16 16 17 18 19 20 20 19 19 19 20 21 21 21 21 21 21 22 22 22 23 22 23 23 23 23 23 23 23 22 22 23 23 23 23 23 23 23 24 24 24 24 25
17 18 18 19 20 20 20 21 21 20 21 22 22 22 22 21 22 22 23 23 23 23 23 23 23 23 22 22 21 21 21 22 22 22 22 23 23 24 24 25 25 25 26
19 20 20 20 21 21 20 21 21 22 23 22 22 22 22 22 23 22 23 23 23 22 22 22 22 22 22 21 21 21 20 21 22 22 22 22 23 24 24 25 25 25 26
20 21 21 21 20 20 20 21 21 23 24 23 22 22 22 22 22 22 22 22 22 22 22 21 21 21 21 21 22 22 20 20 20 21 22 22 23 24 24 25 26 26 26
20 22 22 21 20 20 21 21 21 22 22 22 21 21 21 21 21 21 22 22 22 22 21 21 21 21 21 21 21 22 21 20 20 21 22 22 23 24 24 25 26 27 26
21 21 22 21 20 20 21 22 21 22 21 21 21 21 21 21 21 21 21 21 20 20 20 20 21 21 21 21 21 22 22 21 21 21 22 23 24 25 25 25 26 27 27
21 21 21 21 21 21 21 22 22 21 20 21 21 21 22 22 21 20 19 19 19 19 20 20 20 21 21 21 21 21 22 23 22 22 22 23 24 25 25 26 27 28 29
21 22 22 22 22 21 22 23 22 20 20 20 21 21 21 20 20 20 19 18 18 19 20 21 21 21 22 22 22 22 23 24 23 23 22 23 24 25 26 26 27 28 30
22 22 22 23 22 22 22 22 21 20 20 20 20 20 20 19 19 19 19 19 20 20 21 21 21 22 21 22 23 23 23 24 24 24 24 24 25 25 26 26 26 26 29
22 22 22 23 22 22 21 21 21 20 20 19 19 18 18 18 19 19 19 19 19 20 20 21 21 21 22 23 23 23 24 24 24 25 26 26 26 26 26 26 26 27 27
22 22 22 21 21 21 20 20 19 19 18 18 18 17 17 18 18 17 18 19 19 19 20 21 22 22 22 23 24 25 24 24 25 26 27 27 26 26 25 25 26 27 27
22 22 22 20 19 19 19 19 17 17 17 17 17 16 16 17 17 17 18 19 20 20 20 21 22 23 23 24 25 26 26 26 26 26 27 27 27 26 26 26 26 27 27
22 22 20 19 17 18 18 19 18 18 17 16 16 16 16 17 17 18 18 19 20 21 22 22 23 22 23 23 24 25 26 27 26 26 26 26 27 27 27 27 27 27 28
22 21 20 18 17 17 18 18 18 18 17 16 17 16 16 17 18 18 19 19 20 21 21 21 22 22 23 23 23 25 26 26 26 27 27 26 27 28 28 27 27 28 29
Wind_Direction
327 318 313 313 318 319 315 318 317 315 313 315 316 313 311 311 306 302 299 299 298 298 298 294 289 289 289 287 283 278 273 268 265 264 262 259 258 257 254 253 250 247 244
316 311 309 315 317 317 314 316 315 315 312 308 308 308 304 303 301 298 296 294 294 293 294 290 290 288 288 285 283 278 275 271 268 265 263 261 259 258 256 254 252 249 247
308 306 305 311 315 317 314 314 312 310 307 304 303 305 304 301 298 295 292 290 291 291 290 288 289 288 287 285 283 280 276 272 268 266 264 262 260 259 258 257 254 253 251
302 301 304 309 313 314 310 307 303 303 301 299 299 302 303 301 299 296 293 290 289 289 288 287 285 285 284 284 282 281 277 273 270 266 264 263 260 259 258 257 255 254 253
299 300 301 305 306 306 308 310 305 301 302 299 298 298 298 298 297 295 295 292 291 290 286 284 282 281 280 280 280 278 275 272 269 268 266 264 261 259 258 258 255 254 254
301 297 299 303 304 304 305 307 306 303 300 299 298 297 296 296 295 294 294 293 291 289 286 283 280 278 278 278 277 274 272 271 272 270 267 264 262 259 258 257 255 254 255
300 297 299 300 300 304 303 302 303 301 298 295 293 295 293 293 293 292 291 291 291 290 287 283 282 280 280 279 276 273 270 270 271 269 267 264 262 260 258 258 256 255 255
301 297 299 299 301 301 300 300 303 299 295 292 292 293 289 289 291 290 290 289 290 289 287 283 282 281 278 277 275 272 270 269 269 269 267 264 260 259 259 259 257 255 255
306 303 300 302 302 301 299 296 297 296 292 292 291 290 286 284 289 289 287 286 287 287 286 283 282 282 279 276 275 272 271 269 268 268 268 265 261 259 258 258 257 257 256
309 307 306 305 305 301 298 295 295 293 291 290 290 289 287 286 288 288 287 285 285 285 285 283 282 282 280 276 273 271 269 269 268 266 266 264 262 260 259 257 257 257 256
308 306 306 303 302 298 295 293 294 292 290 290 288 288 287 286 286 286 285 284 283 282 282 282 281 282 280 277 273 271 269 268 267 266 265 263 261 261 260 258 257 257 257
309 306 304 303 302 297 294 291 291 291 291 289 287 287 287 286 287 285 282 282 281 281 280 279 279 280 280 278 274 272 269 268 265 265 264 263 262 261 261 260 259 257 257
305 304 303 301 302 297 292 290 289 289 290 287 285 284 284 284 285 284 281 278 279 279 278 278 279 279 279 279 276 271 268 265 265 264 264 264 264 263 262 261 261 258 257
301 300 300 298 296 294 292 289 289 288 287 286 285 284 283 283 283 283 282 278 279 278 277 277 278 278 278 278 278 273 270 267 266 265 265 265 265 264 262 261 261 259 258
300 298 296 296 294 293 293 292 290 289 288 288 288 286 285 284 282 281 283 280 278 276 276 276 276 277 276 275 275 273 271 268 267 267 266 266 266 264 262 263 261 261 260
299 298 298 297 296 295 293 292 292 291 290 289 288 286 285 284 282 282 282 280 278 277 276 274 275 276 274 274 273 272 271 269 268 269 268 267 266 264 262 261 261 261 261
298 299 299 301 299 297 296 293 292 293 291 288 287 285 284 283 282 282 279 278 277 278 275 275 277 276 275 275 273 272 270 270 268 270 270 267 267 264 262 261 259 259 261
299 299 300 302 300 299 299 297 294 293 291 288 286 283 282 283 282 281 280 278 277 277 276 277 278 278 276 275 276 272 267 268 268 269 269 268 267 267 264 261 258 258 259
301 300 299 301 303 302 301 300 297 296 294 290 285 282 281 281 280 281 283 281 278 274 275 276 278 279 278 277 276 275 270 269 268 269 271 271 270 269 266 262 261 258 257
300 301 300 303 305 305 306 303 301 299 297 292 288 284 282 281 281 282 283 281 279 278 277 277 278 278 277 277 276 275 274 271 271 272 272 273 272 270 267 263 262 259 256
301 303 304 304 304 305 305 302 302 301 295 291 287 284 282 283 283 282 281 281 280 279 279 278 278 276 276 276 276 276 275 273 271 271 271 272 271 269 268 265 262 260 256
302 303 305 303 303 306 307 305 302 300 297 292 291 289 286 283 282 281 282 283 282 279 279 280 281 277 277 277 277 278 277 275 275 273 273 274 271 269 267 265 263 261 258
301 303 305 304 305 309 312 309 304 300 298 295 295 290 286 284 284 284 284 285 284 281 281 283 283 283 280 278 277 277 278 275 274 274 274 275 274 273 269 265 263 261 261
302 303 305 306 311 313 316 313 309 305 304 301 297 293 290 289 287 286 287 286 285 284 284 286 286 285 284 283 281 280 280 278 275 273 274 275 274 274 273 268 265 263 262
307 305 308 311 317 319 318 314 313 311 309 306 302 297 296 293 290 290 289 288 286 285 286 287 286 286 286 285 284 284 282 282 279 277 277 275 273 272 271 267 264 263 262
312 309 308 310 317 317 315 314 312 312 310 309 307 300 296 295 293 291 291 291 290 288 287 286 287 287 287 287 288 288 286 285 281 279 278 276 274 271 269 268 266 266 264
Height
5874 5874 5873 5873 5872 5871 5870 5870 5869 5869 5868 5868 5868 5868 5868 5868 5868 5868 5868 5868 5868 5868 5868 5868 5868 5867 5868 5867 5868 5868 5868 5869 5869 5870 5871 5871 5872 5873 5873 5874 5875 5876 5877
5873 5873 5872 5871 5870 5870 5869 5868 5868 5867 5867 5866 5866 5866 5866 5866 5866 5866 5866 5866 5866 5866 5866 5866 5865 5865 5865 5865 5865 5866 5866 5866 5867 5867 5868 5869 5869 5870 5871 5872 5873 5874 5875
5872 5871 5871 5870 5869 5868 5867 5867 5866 5866 5865 5864 5864 5864 5864 5863 5863 5863 5863 5863 5863 5863 5863 5863 5863 5863 5863 5863 5863 5863 5863 5863 5864 5865 5865 5866 5867 5867 5868 5869 5870 5871 5872
5870 5870 5869 5868 5867 5867 5866 5865 5865 5864 5863 5862 5862 5861 5861 5861 5861 5860 5860 5860 5860 5860 5860 5860 5860 5860 5860 5860 5860 5860 5860 5861 5861 5862 5862 5863 5864 5864 5865 5866 5867 5868 5869
5869 5868 5867 5867 5866 5865 5864 5864 5863 5862 5861 5860 5860 5859 5859 5858 5858 5858 5857 5857 5857 5857 5857 5857 5857 5857 5857 5857 5857 5857 5857 5857 5858 5858 5859 5860 5860 5861 5862 5863 5864 5865 5866
5867 5866 5866 5865 5864 5863 5862 5861 5860 5859 5859 5858 5857 5857 5856 5856 5855 5855 5854 5853 5853 5853 5853 5853 5853 5853 5853 5853 5853 5853 5853 5854 5854 5854 5855 5856 5857 5857 5858 5859 5860 5861 5862
5865 5864 5864 5863 5862 5861 5860 5859 5858 5857 5856 5855 5855 5854 5854 5853 5852 5851 5851 5850 5850 5850 5849 5849 5849 5849 5849 5849 5849 5849 5849 5850 5850 5850 5851 5851 5852 5853 5854 5855 5856 5857 5858
5862 5862 5861 5860 5859 5858 5858 5857 5856 5855 5854 5853 5852 5851 5850 5849 5849 5848 5847 5847 5846 5846 5845 5845 5845 5844 5844 5844 5844 5844 5845 5845 5845 5846 5846 5847 5848 5849 5849 5851 5852 5853 5854
5860 5859 5858 5857 5856 5856 5855 5854 5853 5852 5851 5850 5849 5847 5846 5845 5845 5844 5843 5842 5842 5841 5841 5840 5840 5839 5839 5839 5839 5840 5840 5840 5841 5841 5842 5842 5843 5844 5845 5846 5847 5849 5850
5857 5856 5855 5854 5853 5852 5851 5850 5849 5848 5847 5846 5845 5843 5842 5841 5840 5839 5839 5838 5837 5836 5836 5835 5835 5835 5834 5834 5834 5834 5835 5835 5836 5836 5837 5838 5838 5839 5840 5842 5843 5844 5846
5855 5853 5852 5851 5850 5849 5848 5847 5845 5844 5843 5842 5841 5839 5838 5837 5835 5834 5834 5833 5832 5831 5831 5830 5830 5829 5829 5829 5829 5829 5829 5830 5830 5831 5832 5832 5833 5834 5836 5837 5838 5840 5841
5851 5850 5848 5847 5846 5845 5843 5842 5841 5840 5839 5838 5837 5835 5834 5832 5831 5830 5828 5828 5827 5826 5825 5825 5824 5824 5823 5823 5823 5824 5824 5824 5825 5825 5826 5827 5828 5829 5830 5831 5833 5834 5836
5848 5846 5845 5844 5842 5841 5839 5838 5837 5835 5834 5833 5832 5831 5829 5828 5826 5824 5823 5822 5821 5821 5820 5819 5819 5818 5818 5817 5818 5818 5819 5819 5819 5820 5821 5822 5823 5823 5825 5826 5827 5829 5830
5845 5843 5842 5840 5838 5837 5835 5834 5832 5831 5829 5828 5827 5825 5824 5822 5821 5819 5818 5816 5815 5815 5814 5814 5813 5813 5813 5812 5812 5813 5813 5813 5814 5814 5815 5816 5817 5818 5819 5820 5821 5823 5824
5841 5840 5837 5836 5834 5832 5831 5829 5827 5826 5824 5822 5821 5820 5818 5817 5815 5814 5812 5811 5809 5809 5809 5808 5808 5808 5808 5807 5807 5807 5808 5808 5809 5809 5810 5810 5811 5812 5813 5814 5815 5816 5818
5837 5835 5833 5831 5829 5827 5825 5824 5822 5820 5818 5816 5815 5813 5812 5811 5809 5808 5807 5805 5804 5804 5803 5803 5803 5802 5802 5802 5802 5802 5802 5803 5803 5804 5805 5805 5805 5806 5807 5808 5809 5810 5811
5833 5831 5828 5826 5824 5822 5820 5818 5816 5814 5812 5810 5808 5807 5806 5805 5803 5802 5801 5800 5800 5799 5798 5798 5798 5797 5797 5797 5797 5797 5797 5798 5798 5799 5799 5799 5799 5800 5801 5801 5802 5803 5804
5828 5826 5823 5821 5818 5816 5814 5812 5810 5807 5805 5804 5802 5801 5800 5799 5798 5797 5796 5795 5794 5793 5793 5793 5792 5792 5792 5792 5792 5792 5793 5793 5793 5793 5793 5793 5794 5794 5794 5795 5796 5797 5798
5823 5821 5818 5816 5813 5811 5808 5806 5803 5801 5799 5797 5796 5795 5794 5793 5791 5791 5791 5790 5789 5788 5788 5788 5788 5787 5787 5787 5787 5787 5787 5787 5787 5787 5788 5787 5787 5787 5788 5788 5789 5789 5790
5819 5816 5813 5811 5808 5805 5803 5800 5797 5795 5793 5791 5790 5789 5788 5787 5786 5786 5786 5785 5784 5783 5783 5782 5782 5782 5782 5782 5782 5782 5782 5781 5781 5781 5781 5781 5781 5781 5780 5780 5781 5782 5783
5814 5811 5808 5806 5803 5800 5797 5795 5792 5790 5788 5786 5784 5783 5783 5782 5781 5781 5781 5780 5779 5778 5778 5777 5777 5776 5776 5776 5776 5776 5776 5776 5775 5775 5775 5774 5774 5774 5773 5773 5773 5774 5775
5808 5806 5804 5801 5798 5795 5792 5789 5787 5784 5782 5781 5780 5778 5777 5777 5776 5776 5775 5775 5774 5773 5773 5772 5771 5771 5771 5770 5770 5770 5770 5770 5768 5768 5767 5767 5766 5766 5766 5765 5766 5766 5767
5804 5801 5799 5796 5793 5791 5787 5784 5781 5779 5777 5776 5775 5774 5773 5772 5772 5771 5770 5770 5769 5768 5768 5767 5766 5765 5764 5764 5764 5764 5763 5763 5762 5761 5760 5759 5758 5758 5758 5758 5758 5759 5760
5800 5797 5795 5792 5789 5786 5783 5780 5777 5776 5774 5773 5771 5771 5769 5768 5767 5766 5765 5765 5764 5763 5762 5761 5760 5759 5758 5757 5757 5756 5755 5754 5754 5754 5753 5751 5750 5750 5750 5750 5750 5751 5752
5796 5793 5791 5788 5785 5783 5780 5778 5775 5773 5771 5769 5768 5767 5765 5764 5763 5761 5760 5759 5758 5757 5756 5755 5754 5753 5752 5751 5750 5749 5748 5747 5746 5745 5745 5744 5743 5743 5742 5742 5743 5743 5744
5792 5789 5787 5785 5782 5780 5778 5775 5772 5770 5768 5766 5765 5763 5762 5760 5758 5756 5755 5754 5752 5751 5750 5749 5747 5746 5745 5744 5743 5741 5740 5739 5738 5737 5736 5736 5735 5734 5734 5734 5735 5735 5735